Location: Carabito
(9.8355°N, 67.9249°W)
Time: 01:31:26
(UTC+00:00)

Cosmos 2322 Rocket - Pass Details

Date: 23 May 2024
Orbit: 832 x 850 km, 71.0° (Epoch: 12 June)

Event Time Altitude Azimuth Distance (km) Brightness Sun altitude
Rises 07:51:07 0° 343° (NNW) 3,391 5.5 -31.6°
Reaches altitude 10° 07:53:33 10° 342° (NNW) 2,459 4.7 -31.1°
Enters shadow 07:56:21 31° 341° (NNW) 1,446 3.4 -30.5°
